owner,sensor,date,latitude,longitude,vertical_datum,sea_water_speed,direction_of_sea_water_velocity,upward_sea_water_velocity,qcFlag
Kerr-McGee,ioos:station:wmo:42373:1,2020-04-01T00:00:00Z,27.3539,-94.6254,79.0,37.1,299.9,-9999.0,'11111222,11111222,99999999'
Kerr-McGee,ioos:station:wmo:42373:1,2020-04-01T00:20:00Z,27.3539,-94.6254,79.0,38.6,299.6,-9999.0,'11111222,11111222,99999999'
Kerr-McGee,ioos:station:wmo:42373:1,2020-04-01T00:40:00Z,27.3539,-94.6254,79.0,40.5,300.0,-9999.0,'11111222,11111222,99999999'
Kerr-McGee,ioos:station:wmo:42373:1,2020-04-01T01:00:00Z,27.3539,-94.6254,79.0,40.9,300.8,-9999.0,'11111222,11111222,99999999'
Kerr-McGee,ioos:station:wmo:42373:1,2020-04-01T01:20:00Z,27.3539,-94.6254,79.0,41.1,300.4,-9999.0,'11111222,11111222,99999999'
Kerr-McGee,ioos:station:wmo:42373:1,2020-04-01T01:40:00Z,27.3539,-94.6254,79.0,41.9,299.7,-9999.0,'11111222,11111222,99999999'
Kerr-McGee,ioos:station:wmo:42373:1,2020-04-01T02:00:00Z,27.3539,-94.6254,79.0,42.4,298.3,-9999.0,'11111222,11111222,99999999'
Kerr-McGee,ioos:station:wmo:42373:1,2020-04-01T02:20:00Z,27.3539,-94.6254,79.0,42.9,299.3,-9999.0,'11111222,11111222,99999999'
Kerr-McGee,ioos:station:wmo:42373:1,2020-04-01T02:40:00Z,27.3539,-94.6254,79.0,43.0,300.7,-9999.0,'11111222,11111222,99999999'
Kerr-McGee,ioos:station:wmo:42373:1,2020-04-01T03:00:00Z,27.3539,-94.6254,79.0,43.0,303.3,-9999.0,'11111222,11111222,99999999'
Kerr-McGee,ioos:station:wmo:42373:1,2020-04-01T03:20:00Z,27.3539,-94.6254,79.0,42.7,303.5,-9999.0,'11111222,11111222,99999999'
Kerr-McGee,ioos:station:wmo:42373:1,2020-04-01T03:40:00Z,27.3539,-94.6254,79.0,45.3,303.7,-9999.0,'11111222,11111222,99999999'
Kerr-McGee,ioos:station:wmo:42373:1,2020-04-01T04:00:00Z,27.3539,-94.6254,79.0,45.3,304.8,-9999.0,'11111222,11111222,99999999'
Kerr-McGee,ioos:station:wmo:42373:1,2020-04-01T04:20:00Z,27.3539,-94.6254,79.0,44.8,307.0,-9999.0,'11111222,11111222,99999999'
Kerr-McGee,ioos:station:wmo:42373:1,2020-04-01T04:40:00Z,27.3539,-94.6254,79.0,42.2,307.2,-9999.0,'11111222,11111222,99999999'
Kerr-McGee,ioos:station:wmo:42373:1,2020-04-01T05:00:00Z,27.3539,-94.6254,79.0,41.6,306.3,-9999.0,'11111222,11111222,99999999'
Kerr-McGee,ioos:station:wmo:42373:1,2020-04-01T05:20:00Z,27.3539,-94.6254,79.0,42.6,304.0,-9999.0,'11111222,11111222,99999999'
Kerr-McGee,ioos:station:wmo:42373:1,2020-04-01T05:40:00Z,27.3539,-94.6254,79.0,42.3,305.7,-9999.0,'11111222,11111222,99999999'
Kerr-McGee,ioos:station:wmo:42373:1,2020-04-01T06:00:00Z,27.3539,-94.6254,79.0,40.3,305.0,-9999.0,'11111222,11111222,99999999'
Kerr-McGee,ioos:station:wmo:42373:1,2020-04-01T06:20:00Z,27.3539,-94.6254,79.0,41.2,305.9,-9999.0,'11111222,11111222,99999999'
Kerr-McGee,ioos:station:wmo:42373:1,2020-04-01T06:40:00Z,27.3539,-94.6254,79.0,41.3,309.2,-9999.0,'11111222,11111222,99999999'
Kerr-McGee,ioos:station:wmo:42373:1,2020-04-01T07:00:00Z,27.3539,-94.6254,79.0,38.9,312.5,-9999.0,'11111222,11111222,99999999'
Kerr-McGee,ioos:station:wmo:42373:1,2020-04-01T07:20:00Z,27.3539,-94.6254,79.0,36.9,311.8,-9999.0,'11111222,11111222,99999999'
Kerr-McGee,ioos:station:wmo:42373:1,2020-04-01T07:40:00Z,27.3539,-94.6254,79.0,36.5,308.3,-9999.0,'11111222,11111222,99999999'
Kerr-McGee,ioos:station:wmo:42373:1,2020-04-01T08:00:00Z,27.3539,-94.6254,79.0,37.9,304.2,-9999.0,'11111222,11111222,99999999'
Kerr-McGee,ioos:station:wmo:42373:1,2020-04-01T08:20:00Z,27.3539,-94.6254,79.0,36.1,304.4,-9999.0,'11111222,11111222,99999999'
Kerr-McGee,ioos:station:wmo:42373:1,2020-04-01T08:40:00Z,27.3539,-94.6254,79.0,36.4,300.5,-9999.0,'11111222,11111222,99999999'
Kerr-McGee,ioos:station:wmo:42373:1,2020-04-01T09:00:00Z,27.3539,-94.6254,79.0,35.8,297.8,-9999.0,'11111222,11111222,99999999'
Kerr-McGee,ioos:station:wmo:42373:1,2020-04-01T09:20:00Z,27.3539,-94.6254,79.0,35.5,295.0,-9999.0,'11111222,11111222,99999999'
Kerr-McGee,ioos:station:wmo:42373:1,2020-04-01T09:40:00Z,27.3539,-94.6254,79.0,35.6,293.5,-9999.0,'11111222,11111222,99999999'
Kerr-McGee,ioos:station:wmo:42373:1,2020-04-01T10:00:00Z,27.3539,-94.6254,79.0,35.8,290.8,-9999.0,'11111222,11111222,99999999'
Kerr-McGee,ioos:station:wmo:42373:1,2020-04-01T10:20:00Z,27.3539,-94.6254,79.0,35.5,287.4,-9999.0,'11111222,11111222,99999999'
Kerr-McGee,ioos:station:wmo:42373:1,2020-04-01T10:40:00Z,27.3539,-94.6254,79.0,34.9,287.3,-9999.0,'11111222,11111222,99999999'
Kerr-McGee,ioos:station:wmo:42373:1,2020-04-01T11:00:00Z,27.3539,-94.6254,79.0,35.4,282.2,-9999.0,'11111222,11111222,99999999'
Kerr-McGee,ioos:station:wmo:42373:1,2020-04-01T11:20:00Z,27.3539,-94.6254,79.0,34.8,279.8,-9999.0,'11111222,11111222,99999999'
Kerr-McGee,ioos:station:wmo:42373:1,2020-04-01T11:40:00Z,27.3539,-94.6254,79.0,37.1,276.6,-9999.0,'11111222,11111222,99999999'
Kerr-McGee,ioos:station:wmo:42373:1,2020-04-01T12:00:00Z,27.3539,-94.6254,79.0,37.7,276.1,-9999.0,'11111222,11111222,99999999'
Kerr-McGee,ioos:station:wmo:42373:1,2020-04-01T12:20:00Z,27.3539,-94.6254,79.0,37.1,277.7,-9999.0,'11111222,11111222,99999999'
Kerr-McGee,ioos:station:wmo:42373:1,2020-04-01T12:40:00Z,27.3539,-94.6254,79.0,38.9,276.5,-9999.0,'11111222,11111222,99999999'
Kerr-McGee,ioos:station:wmo:42373:1,2020-04-01T13:00:00Z,27.3539,-94.6254,79.0,39.3,274.7,-9999.0,'11111222,11111222,99999999'
Kerr-McGee,ioos:station:wmo:42373:1,2020-04-01T13:20:00Z,27.3539,-94.6254,79.0,43.1,274.5,-9999.0,'11111222,11111222,99999999'
Kerr-McGee,ioos:station:wmo:42373:1,2020-04-01T13:40:00Z,27.3539,-94.6254,79.0,43.3,275.0,-9999.0,'11111222,11111222,99999999'
Kerr-McGee,ioos:station:wmo:42373:1,2020-04-01T14:00:00Z,27.3539,-94.6254,79.0,44.0,276.4,-9999.0,'11111222,11111222,99999999'
Kerr-McGee,ioos:station:wmo:42373:1,2020-04-01T14:20:00Z,27.3539,-94.6254,79.0,43.4,278.5,-9999.0,'11111222,11111222,99999999'
Kerr-McGee,ioos:station:wmo:42373:1,2020-04-01T14:40:00Z,27.3539,-94.6254,79.0,45.9,279.4,-9999.0,'11111222,11111222,99999999'
Kerr-McGee,ioos:station:wmo:42373:1,2020-04-01T15:00:00Z,27.3539,-94.6254,79.0,45.7,280.8,-9999.0,'11111222,11111222,99999999'
Kerr-McGee,ioos:station:wmo:42373:1,2020-04-01T15:20:00Z,27.3539,-94.6254,79.0,44.7,281.0,-9999.0,'11111222,11111222,99999999'
Kerr-McGee,ioos:station:wmo:42373:1,2020-04-01T15:40:00Z,27.3539,-94.6254,79.0,44.3,283.0,-9999.0,'11111222,11111222,99999999'
Kerr-McGee,ioos:station:wmo:42373:1,2020-04-01T16:00:00Z,27.3539,-94.6254,79.0,43.4,284.1,-9999.0,'11111222,11111222,99999999'
Kerr-McGee,ioos:station:wmo:42373:1,2020-04-01T16:20:00Z,27.3539,-94.6254,79.0,43.8,284.4,-9999.0,'11111222,11111222,99999999'
Kerr-McGee,ioos:station:wmo:42373:1,2020-04-01T16:40:00Z,27.3539,-94.6254,79.0,40.7,286.3,-9999.0,'11111222,11111222,99999999'
Kerr-McGee,ioos:station:wmo:42373:1,2020-04-01T17:00:00Z,27.3539,-94.6254,79.0,39.8,289.5,-9999.0,'11111222,11111222,99999999'
Kerr-McGee,ioos:station:wmo:42373:1,2020-04-01T17:20:00Z,27.3539,-94.6254,79.0,38.3,289.2,-9999.0,'11111222,11111222,99999999'
Kerr-McGee,ioos:station:wmo:42373:1,2020-04-01T17:40:00Z,27.3539,-94.6254,79.0,36.9,287.0,-9999.0,'11111222,11111222,99999999'
Kerr-McGee,ioos:station:wmo:42373:1,2020-04-01T18:00:00Z,27.3539,-94.6254,79.0,33.5,300.7,-9999.0,'11111222,11111222,99999999'
Kerr-McGee,ioos:station:wmo:42373:1,2020-04-01T18:20:00Z,27.3539,-94.6254,79.0,35.4,300.9,-9999.0,'11111222,11111222,99999999'
Kerr-McGee,ioos:station:wmo:42373:1,2020-04-01T18:40:00Z,27.3539,-94.6254,79.0,35.4,300.0,-9999.0,'11111222,11111222,99999999'
Kerr-McGee,ioos:station:wmo:42373:1,2020-04-01T19:00:00Z,27.3539,-94.6254,79.0,34.9,301.9,-9999.0,'11111222,11111222,99999999'
Kerr-McGee,ioos:station:wmo:42373:1,2020-04-01T19:20:00Z,27.3539,-94.6254,79.0,37.4,298.8,-9999.0,'11111222,11111222,99999999'
Kerr-McGee,ioos:station:wmo:42373:1,2020-04-01T19:40:00Z,27.3539,-94.6254,79.0,36.3,298.6,-9999.0,'11111222,11111222,99999999'
Kerr-McGee,ioos:station:wmo:42373:1,2020-04-01T20:00:00Z,27.3539,-94.6254,79.0,38.5,297.7,-9999.0,'11111222,11111222,99999999'
Kerr-McGee,ioos:station:wmo:42373:1,2020-04-01T20:20:00Z,27.3539,-94.6254,79.0,38.1,295.4,-9999.0,'11111222,11111222,99999999'
Kerr-McGee,ioos:station:wmo:42373:1,2020-04-01T20:40:00Z,27.3539,-94.6254,79.0,38.2,295.2,-9999.0,'11111222,11111222,99999999'
Kerr-McGee,ioos:station:wmo:42373:1,2020-04-01T21:00:00Z,27.3539,-94.6254,79.0,38.1,295.2,-9999.0,'11111222,11111222,99999999'
Kerr-McGee,ioos:station:wmo:42373:1,2020-04-01T21:20:00Z,27.3539,-94.6254,79.0,37.8,293.4,-9999.0,'11111222,11111222,99999999'
Kerr-McGee,ioos:station:wmo:42373:1,2020-04-01T21:40:00Z,27.3539,-94.6254,79.0,35.8,292.8,-9999.0,'11111222,11111222,99999999'
Kerr-McGee,ioos:station:wmo:42373:1,2020-04-01T22:00:00Z,27.3539,-94.6254,79.0,35.3,291.6,-9999.0,'11111222,11111222,99999999'
Kerr-McGee,ioos:station:wmo:42373:1,2020-04-01T22:20:00Z,27.3539,-94.6254,79.0,35.1,290.9,-9999.0,'11111222,11111222,99999999'
Kerr-McGee,ioos:station:wmo:42373:1,2020-04-01T22:40:00Z,27.3539,-94.6254,79.0,35.1,291.2,-9999.0,'11111222,11111222,99999999'
Kerr-McGee,ioos:station:wmo:42373:1,2020-04-01T23:00:00Z,27.3539,-94.6254,79.0,34.5,291.4,-9999.0,'11111222,11111222,99999999'
Kerr-McGee,ioos:station:wmo:42373:1,2020-04-01T23:20:00Z,27.3539,-94.6254,79.0,33.9,293.5,-9999.0,'11111222,11111222,99999999'
Kerr-McGee,ioos:station:wmo:42373:1,2020-04-01T23:40:00Z,27.3539,-94.6254,79.0,33.5,292.4,-9999.0,'11111222,11111222,99999999'
Kerr-McGee,ioos:station:wmo:42373:1,2020-04-02T00:00:00Z,27.3539,-94.6254,79.0,33.1,291.6,-9999.0,'11111222,11111222,99999999'
Kerr-McGee,ioos:station:wmo:42373:1,2020-04-02T00:20:00Z,27.3539,-94.6254,79.0,32.4,290.2,-9999.0,'11111222,11111222,99999999'
Kerr-McGee,ioos:station:wmo:42373:1,2020-04-02T00:40:00Z,27.3539,-94.6254,79.0,32.5,288.5,-9999.0,'11111222,11111222,99999999'
Kerr-McGee,ioos:station:wmo:42373:1,2020-04-02T01:00:00Z,27.3539,-94.6254,79.0,32.9,290.9,-9999.0,'11111222,11111222,99999999'
Kerr-McGee,ioos:station:wmo:42373:1,2020-04-02T01:20:00Z,27.3539,-94.6254,79.0,34.0,292.1,-9999.0,'11111222,11111222,99999999'
Kerr-McGee,ioos:station:wmo:42373:1,2020-04-02T01:40:00Z,27.3539,-94.6254,79.0,34.4,293.8,-9999.0,'11111222,11111222,99999999'
Kerr-McGee,ioos:station:wmo:42373:1,2020-04-02T02:00:00Z,27.3539,-94.6254,79.0,34.6,292.6,-9999.0,'11111222,11111222,99999999'
Kerr-McGee,ioos:station:wmo:42373:1,2020-04-02T02:20:00Z,27.3539,-94.6254,79.0,35.3,295.1,-9999.0,'11111222,11111222,99999999'
Kerr-McGee,ioos:station:wmo:42373:1,2020-04-02T02:40:00Z,27.3539,-94.6254,79.0,35.7,296.3,-9999.0,'11111222,11111222,99999999'
Kerr-McGee,ioos:station:wmo:42373:1,2020-04-02T03:00:00Z,27.3539,-94.6254,79.0,35.6,295.8,-9999.0,'11111222,11111222,99999999'
Kerr-McGee,ioos:station:wmo:42373:1,2020-04-02T03:20:00Z,27.3539,-94.6254,79.0,35.6,296.6,-9999.0,'11111222,11111222,99999999'
Kerr-McGee,ioos:station:wmo:42373:1,2020-04-02T03:40:00Z,27.3539,-94.6254,79.0,35.3,296.2,-9999.0,'11111222,11111222,99999999'
Kerr-McGee,ioos:station:wmo:42373:1,2020-04-02T04:00:00Z,27.3539,-94.6254,79.0,35.7,295.2,-9999.0,'11111222,11111222,99999999'
Kerr-McGee,ioos:station:wmo:42373:1,2020-04-02T04:20:00Z,27.3539,-94.6254,79.0,36.2,294.8,-9999.0,'11111222,11111222,99999999'
Kerr-McGee,ioos:station:wmo:42373:1,2020-04-02T04:40:00Z,27.3539,-94.6254,79.0,35.1,297.5,-9999.0,'11111222,11111222,99999999'
Kerr-McGee,ioos:station:wmo:42373:1,2020-04-02T05:00:00Z,27.3539,-94.6254,79.0,37.1,300.3,-9999.0,'11111222,11111222,99999999'
Kerr-McGee,ioos:station:wmo:42373:1,2020-04-02T05:20:00Z,27.3539,-94.6254,79.0,36.0,300.7,-9999.0,'11111222,11111222,99999999'
Kerr-McGee,ioos:station:wmo:42373:1,2020-04-02T05:40:00Z,27.3539,-94.6254,79.0,37.0,299.8,-9999.0,'11111222,11111222,99999999'
Kerr-McGee,ioos:station:wmo:42373:1,2020-04-02T06:00:00Z,27.3539,-94.6254,79.0,35.2,300.7,-9999.0,'11111222,11111222,99999999'
Kerr-McGee,ioos:station:wmo:42373:1,2020-04-02T06:20:00Z,27.3539,-94.6254,79.0,34.0,301.2,-9999.0,'11111222,11111222,99999999'
Kerr-McGee,ioos:station:wmo:42373:1,2020-04-02T06:40:00Z,27.3539,-94.6254,79.0,35.2,301.7,-9999.0,'11111222,11111222,99999999'
Kerr-McGee,ioos:station:wmo:42373:1,2020-04-02T07:00:00Z,27.3539,-94.6254,79.0,34.8,303.3,-9999.0,'11111222,11111222,99999999'
Kerr-McGee,ioos:station:wmo:42373:1,2020-04-02T07:20:00Z,27.3539,-94.6254,79.0,34.9,301.9,-9999.0,'11111222,11111222,99999999'
Kerr-McGee,ioos:station:wmo:42373:1,2020-04-02T07:40:00Z,27.3539,-94.6254,79.0,32.1,301.4,-9999.0,'11111222,11111222,99999999'
Kerr-McGee,ioos:station:wmo:42373:1,2020-04-02T08:00:00Z,27.3539,-94.6254,79.0,32.3,303.5,-9999.0,'11111222,11111222,99999999'
Kerr-McGee,ioos:station:wmo:42373:1,2020-04-02T08:20:00Z,27.3539,-94.6254,79.0,32.4,300.0,-9999.0,'11111222,11111222,99999999'
Kerr-McGee,ioos:station:wmo:42373:1,2020-04-02T08:40:00Z,27.3539,-94.6254,79.0,31.8,297.0,-9999.0,'11111222,11111222,99999999'
Kerr-McGee,ioos:station:wmo:42373:1,2020-04-02T09:00:00Z,27.3539,-94.6254,79.0,30.9,296.5,-9999.0,'11111222,11111222,99999999'
Kerr-McGee,ioos:station:wmo:42373:1,2020-04-02T09:20:00Z,27.3539,-94.6254,79.0,30.4,297.4,-9999.0,'11111222,11111222,99999999'
Kerr-McGee,ioos:station:wmo:42373:1,2020-04-02T09:40:00Z,27.3539,-94.6254,79.0,30.0,294.4,-9999.0,'11111222,11111222,99999999'
Kerr-McGee,ioos:station:wmo:42373:1,2020-04-02T10:00:00Z,27.3539,-94.6254,79.0,30.7,293.0,-9999.0,'11111222,11111222,99999999'
Kerr-McGee,ioos:station:wmo:42373:1,2020-04-02T10:20:00Z,27.3539,-94.6254,79.0,31.4,291.5,-9999.0,'11111222,11111222,99999999'
Kerr-McGee,ioos:station:wmo:42373:1,2020-04-02T10:40:00Z,27.3539,-94.6254,79.0,34.4,292.2,-9999.0,'11111222,11111222,99999999'
Kerr-McGee,ioos:station:wmo:42373:1,2020-04-02T11:00:00Z,27.3539,-94.6254,79.0,34.8,292.7,-9999.0,'11111222,11111222,99999999'
Kerr-McGee,ioos:station:wmo:42373:1,2020-04-02T11:20:00Z,27.3539,-94.6254,79.0,35.6,292.3,-9999.0,'11111222,11111222,99999999'
Kerr-McGee,ioos:station:wmo:42373:1,2020-04-02T11:40:00Z,27.3539,-94.6254,79.0,34.8,294.1,-9999.0,'11111222,11111222,99999999'
Kerr-McGee,ioos:station:wmo:42373:1,2020-04-02T12:00:00Z,27.3539,-94.6254,79.0,35.0,295.4,-9999.0,'11111222,11111222,99999999'
Kerr-McGee,ioos:station:wmo:42373:1,2020-04-02T12:20:00Z,27.3539,-94.6254,79.0,34.6,294.3,-9999.0,'11111222,11111222,99999999'
Kerr-McGee,ioos:station:wmo:42373:1,2020-04-02T12:40:00Z,27.3539,-94.6254,79.0,35.9,296.6,-9999.0,'11111222,11111222,99999999'
Kerr-McGee,ioos:station:wmo:42373:1,2020-04-02T13:00:00Z,27.3539,-94.6254,79.0,36.9,296.4,-9999.0,'11111222,11111222,99999999'
Kerr-McGee,ioos:station:wmo:42373:1,2020-04-02T13:20:00Z,27.3539,-94.6254,79.0,35.4,295.6,-9999.0,'11111222,11111222,99999999'
Kerr-McGee,ioos:station:wmo:42373:1,2020-04-02T13:40:00Z,27.3539,-94.6254,79.0,34.7,297.3,-9999.0,'11111222,11111222,99999999'
Kerr-McGee,ioos:station:wmo:42373:1,2020-04-02T14:00:00Z,27.3539,-94.6254,79.0,35.8,295.3,-9999.0,'11111222,11111222,99999999'
Kerr-McGee,ioos:station:wmo:42373:1,2020-04-02T14:20:00Z,27.3539,-94.6254,79.0,37.4,295.0,-9999.0,'11111222,11111222,99999999'
Kerr-McGee,ioos:station:wmo:42373:1,2020-04-02T14:40:00Z,27.3539,-94.6254,79.0,36.8,295.1,-9999.0,'11111222,11111222,99999999'
Kerr-McGee,ioos:station:wmo:42373:1,2020-04-02T15:00:00Z,27.3539,-94.6254,79.0,37.7,296.2,-9999.0,'11111222,11111222,99999999'
Kerr-McGee,ioos:station:wmo:42373:1,2020-04-02T15:20:00Z,27.3539,-94.6254,79.0,38.0,297.1,-9999.0,'11111222,11111222,99999999'
Kerr-McGee,ioos:station:wmo:42373:1,2020-04-02T15:40:00Z,27.3539,-94.6254,79.0,37.2,294.6,-9999.0,'11111222,11111222,99999999'
Kerr-McGee,ioos:station:wmo:42373:1,2020-04-02T16:00:00Z,27.3539,-94.6254,79.0,37.9,293.3,-9999.0,'11111222,11111222,99999999'
Kerr-McGee,ioos:station:wmo:42373:1,2020-04-02T16:20:00Z,27.3539,-94.6254,79.0,39.6,293.2,-9999.0,'11111222,11111222,99999999'
Kerr-McGee,ioos:station:wmo:42373:1,2020-04-02T16:40:00Z,27.3539,-94.6254,79.0,40.9,294.7,-9999.0,'11111222,11111222,99999999'
Kerr-McGee,ioos:station:wmo:42373:1,2020-04-02T17:00:00Z,27.3539,-94.6254,79.0,40.1,292.9,-9999.0,'11111222,11111222,99999999'
Kerr-McGee,ioos:station:wmo:42373:1,2020-04-02T17:20:00Z,27.3539,-94.6254,79.0,38.2,290.5,-9999.0,'11111222,11111222,99999999'
Kerr-McGee,ioos:station:wmo:42373:1,2020-04-02T17:40:00Z,27.3539,-94.6254,79.0,39.0,288.5,-9999.0,'11111222,11111222,99999999'
Kerr-McGee,ioos:station:wmo:42373:1,2020-04-02T18:00:00Z,27.3539,-94.6254,79.0,39.2,289.0,-9999.0,'11111222,11111222,99999999'
Kerr-McGee,ioos:station:wmo:42373:1,2020-04-02T18:20:00Z,27.3539,-94.6254,79.0,38.6,292.0,-9999.0,'11111222,11111222,99999999'
Kerr-McGee,ioos:station:wmo:42373:1,2020-04-02T18:40:00Z,27.3539,-94.6254,79.0,37.7,288.2,-9999.0,'11111222,11111222,99999999'
Kerr-McGee,ioos:station:wmo:42373:1,2020-04-02T19:00:00Z,27.3539,-94.6254,79.0,37.5,287.7,-9999.0,'11111222,11111222,99999999'
Kerr-McGee,ioos:station:wmo:42373:1,2020-04-02T19:20:00Z,27.3539,-94.6254,79.0,37.9,288.0,-9999.0,'11111222,11111222,99999999'
Kerr-McGee,ioos:station:wmo:42373:1,2020-04-02T19:40:00Z,27.3539,-94.6254,79.0,36.3,288.5,-9999.0,'11111222,11111222,99999999'
Kerr-McGee,ioos:station:wmo:42373:1,2020-04-02T20:00:00Z,27.3539,-94.6254,79.0,34.3,288.7,-9999.0,'11111222,11111222,99999999'
Kerr-McGee,ioos:station:wmo:42373:1,2020-04-02T20:20:00Z,27.3539,-94.6254,79.0,32.5,290.0,-9999.0,'11111222,11111222,99999999'
Kerr-McGee,ioos:station:wmo:42373:1,2020-04-02T20:40:00Z,27.3539,-94.6254,79.0,30.5,290.3,-9999.0,'11111222,11111222,99999999'
Kerr-McGee,ioos:station:wmo:42373:1,2020-04-02T21:00:00Z,27.3539,-94.6254,79.0,28.0,293.4,-9999.0,'11111222,11111222,99999999'
Kerr-McGee,ioos:station:wmo:42373:1,2020-04-02T21:20:00Z,27.3539,-94.6254,79.0,27.3,297.0,-9999.0,'11111222,11111222,99999999'
Kerr-McGee,ioos:station:wmo:42373:1,2020-04-02T21:40:00Z,27.3539,-94.6254,79.0,26.8,297.8,-9999.0,'11111222,11111222,99999999'
Kerr-McGee,ioos:station:wmo:42373:1,2020-04-02T22:00:00Z,27.3539,-94.6254,79.0,26.0,298.4,-9999.0,'11111222,11111222,99999999'
Kerr-McGee,ioos:station:wmo:42373:1,2020-04-02T22:20:00Z,27.3539,-94.6254,79.0,24.7,302.3,-9999.0,'11111222,11111222,99999999'
Kerr-McGee,ioos:station:wmo:42373:1,2020-04-02T22:40:00Z,27.3539,-94.6254,79.0,23.4,304.7,-9999.0,'11111222,11111222,99999999'
Kerr-McGee,ioos:station:wmo:42373:1,2020-04-02T23:00:00Z,27.3539,-94.6254,79.0,23.2,305.0,-9999.0,'11111222,11111222,99999999'
Kerr-McGee,ioos:station:wmo:42373:1,2020-04-02T23:20:00Z,27.3539,-94.6254,79.0,22.0,306.3,-9999.0,'11111222,11111222,99999999'
Kerr-McGee,ioos:station:wmo:42373:1,2020-04-02T23:40:00Z,27.3539,-94.6254,79.0,21.8,306.2,-9999.0,'11111222,11111222,99999999'
Kerr-McGee,ioos:station:wmo:42373:1,2020-04-03T00:00:00Z,27.3539,-94.6254,79.0,22.0,304.3,-9999.0,'11111222,11111222,99999999'
Kerr-McGee,ioos:station:wmo:42373:1,2020-04-03T00:20:00Z,27.3539,-94.6254,79.0,22.3,304.8,-9999.0,'11111222,11111222,99999999'
Kerr-McGee,ioos:station:wmo:42373:1,2020-04-03T00:40:00Z,27.3539,-94.6254,79.0,21.8,305.7,-9999.0,'11111222,11111222,99999999'
Kerr-McGee,ioos:station:wmo:42373:1,2020-04-03T01:00:00Z,27.3539,-94.6254,79.0,20.6,302.7,-9999.0,'11111222,11111222,99999999'
Kerr-McGee,ioos:station:wmo:42373:1,2020-04-03T01:20:00Z,27.3539,-94.6254,79.0,19.0,302.5,-9999.0,'11111222,11111222,99999999'
Kerr-McGee,ioos:station:wmo:42373:1,2020-04-03T01:40:00Z,27.3539,-94.6254,79.0,17.7,301.6,-9999.0,'11111222,11111222,99999999'
Kerr-McGee,ioos:station:wmo:42373:1,2020-04-03T02:00:00Z,27.3539,-94.6254,79.0,18.7,301.0,-9999.0,'11111222,11111222,99999999'
Kerr-McGee,ioos:station:wmo:42373:1,2020-04-03T02:20:00Z,27.3539,-94.6254,79.0,19.4,299.3,-9999.0,'11111222,11111222,99999999'
Kerr-McGee,ioos:station:wmo:42373:1,2020-04-03T02:40:00Z,27.3539,-94.6254,79.0,18.2,296.1,-9999.0,'11111222,11111222,99999999'
Kerr-McGee,ioos:station:wmo:42373:1,2020-04-03T03:00:00Z,27.3539,-94.6254,79.0,18.6,292.1,-9999.0,'11111222,11111222,99999999'
Kerr-McGee,ioos:station:wmo:42373:1,2020-04-03T03:20:00Z,27.3539,-94.6254,79.0,19.3,291.5,-9999.0,'11111222,11111222,99999999'
Kerr-McGee,ioos:station:wmo:42373:1,2020-04-03T03:40:00Z,27.3539,-94.6254,79.0,19.9,290.3,-9999.0,'11111222,11111222,99999999'
Kerr-McGee,ioos:station:wmo:42373:1,2020-04-03T04:00:00Z,27.3539,-94.6254,79.0,19.0,289.0,-9999.0,'11111222,11111222,99999999'
Kerr-McGee,ioos:station:wmo:42373:1,2020-04-03T04:20:00Z,27.3539,-94.6254,79.0,17.9,288.5,-9999.0,'11111222,11111222,99999999'
Kerr-McGee,ioos:station:wmo:42373:1,2020-04-03T04:40:00Z,27.3539,-94.6254,79.0,18.9,286.9,-9999.0,'11111222,11111222,99999999'
Kerr-McGee,ioos:station:wmo:42373:1,2020-04-03T05:00:00Z,27.3539,-94.6254,79.0,18.3,285.9,-9999.0,'11111222,11111222,99999999'
Kerr-McGee,ioos:station:wmo:42373:1,2020-04-03T05:20:00Z,27.3539,-94.6254,79.0,18.2,289.5,-9999.0,'11111222,11111222,99999999'
Kerr-McGee,ioos:station:wmo:42373:1,2020-04-03T05:40:00Z,27.3539,-94.6254,79.0,18.0,294.0,-9999.0,'11111222,11111222,99999999'
Kerr-McGee,ioos:station:wmo:42373:1,2020-04-03T06:00:00Z,27.3539,-94.6254,79.0,17.7,295.4,-9999.0,'11111222,11111222,99999999'
Kerr-McGee,ioos:station:wmo:42373:1,2020-04-03T06:20:00Z,27.3539,-94.6254,79.0,17.6,302.0,-9999.0,'11111222,11111222,99999999'
Kerr-McGee,ioos:station:wmo:42373:1,2020-04-03T06:40:00Z,27.3539,-94.6254,79.0,18.5,308.0,-9999.0,'11111222,11111222,99999999'
Kerr-McGee,ioos:station:wmo:42373:1,2020-04-03T07:00:00Z,27.3539,-94.6254,79.0,18.3,309.4,-9999.0,'11111222,11111222,99999999'
Kerr-McGee,ioos:station:wmo:42373:1,2020-04-03T07:20:00Z,27.3539,-94.6254,79.0,18.5,313.5,-9999.0,'11111222,11111222,99999999'
Kerr-McGee,ioos:station:wmo:42373:1,2020-04-03T07:40:00Z,27.3539,-94.6254,79.0,18.7,320.9,-9999.0,'11111222,11111222,99999999'
Kerr-McGee,ioos:station:wmo:42373:1,2020-04-03T08:00:00Z,27.3539,-94.6254,79.0,21.3,312.1,-9999.0,'11111222,11111222,99999999'
Kerr-McGee,ioos:station:wmo:42373:1,2020-04-03T08:20:00Z,27.3539,-94.6254,79.0,21.4,312.5,-9999.0,'11111222,11111222,99999999'
Kerr-McGee,ioos:station:wmo:42373:1,2020-04-03T08:40:00Z,27.3539,-94.6254,79.0,22.4,315.5,-9999.0,'11111222,11111222,99999999'
Kerr-McGee,ioos:station:wmo:42373:1,2020-04-03T09:00:00Z,27.3539,-94.6254,79.0,23.2,315.7,-9999.0,'11111222,11111222,99999999'
Kerr-McGee,ioos:station:wmo:42373:1,2020-04-03T09:20:00Z,27.3539,-94.6254,79.0,25.0,314.8,-9999.0,'11111222,11111222,99999999'
Kerr-McGee,ioos:station:wmo:42373:1,2020-04-03T09:40:00Z,27.3539,-94.6254,79.0,26.2,313.8,-9999.0,'11111222,11111222,99999999'
Kerr-McGee,ioos:station:wmo:42373:1,2020-04-03T10:00:00Z,27.3539,-94.6254,79.0,27.2,314.0,-9999.0,'11111222,11111222,99999999'
Kerr-McGee,ioos:station:wmo:42373:1,2020-04-03T10:20:00Z,27.3539,-94.6254,79.0,29.2,310.8,-9999.0,'11111222,11111222,99999999'
Kerr-McGee,ioos:station:wmo:42373:1,2020-04-03T10:40:00Z,27.3539,-94.6254,79.0,29.5,309.1,-9999.0,'11111222,11111222,99999999'
Kerr-McGee,ioos:station:wmo:42373:1,2020-04-03T11:00:00Z,27.3539,-94.6254,79.0,31.5,306.6,-9999.0,'11111222,11111222,99999999'
Kerr-McGee,ioos:station:wmo:42373:1,2020-04-03T11:20:00Z,27.3539,-94.6254,79.0,30.5,311.7,-9999.0,'11111222,11111222,99999999'
Kerr-McGee,ioos:station:wmo:42373:1,2020-04-03T11:40:00Z,27.3539,-94.6254,79.0,30.5,312.2,-9999.0,'11111222,11111222,99999999'
Kerr-McGee,ioos:station:wmo:42373:1,2020-04-03T12:00:00Z,27.3539,-94.6254,79.0,30.6,315.7,-9999.0,'11111222,11111222,99999999'
Kerr-McGee,ioos:station:wmo:42373:1,2020-04-03T12:20:00Z,27.3539,-94.6254,79.0,32.4,309.9,-9999.0,'11111222,11111222,99999999'
Kerr-McGee,ioos:station:wmo:42373:1,2020-04-03T12:40:00Z,27.3539,-94.6254,79.0,32.1,319.3,-9999.0,'11111222,11111222,99999999'
Kerr-McGee,ioos:station:wmo:42373:1,2020-04-03T13:00:00Z,27.3539,-94.6254,79.0,33.9,315.6,-9999.0,'11111222,11111222,99999999'
Kerr-McGee,ioos:station:wmo:42373:1,2020-04-03T13:20:00Z,27.3539,-94.6254,79.0,31.8,316.8,-9999.0,'11111222,11111222,99999999'
Kerr-McGee,ioos:station:wmo:42373:1,2020-04-03T13:40:00Z,27.3539,-94.6254,79.0,32.3,312.2,-9999.0,'11111222,11111222,99999999'